Waarnemingen

Advertentie
Mijn weer
Bastia, Frankrijk (7790): temperatuur & dauwpunt: 16.10.2017 15:00:00 - 22.10.2017 15:00:00 (CEST)Bastia, Frankrijk (7790): temperatuur 5cm: 16.10.2017 15:00:00 - 22.10.2017 15:00:00 (CEST)Bastia, Frankrijk (7790): temperatuur -20cm & temperatuur -100cm: 16.10.2017 15:00:00 - 22.10.2017 15:00:00 (CEST)Bastia, Frankrijk (7790): windsnelheid & windstoten: 16.10.2017 15:00:00 - 22.10.2017 15:00:00 (CEST)Bastia, Frankrijk (7790): windrichting: 16.10.2017 15:00:00 - 22.10.2017 15:00:00 (CEST)Bastia, Frankrijk (7790): luchtdruk: 16.10.2017 15:00:00 - 22.10.2017 15:00:00 (CEST)Bastia, Frankrijk (7790): zicht: 16.10.2017 15:00:00 - 22.10.2017 15:00:00 (CEST)Bastia, Frankrijk (7790): Zonneschijnduur: 16.10.2017 15:00:00 - 22.10.2017 15:00:00 (CEST)Bastia, Frankrijk (7790): neerslag: 16.10.2017 15:00:00 - 22.10.2017 15:00:00 (CEST)
Datum & Tijd tt [°C] td [°C] tt 5cm [°C] tt -20cm [°C] tt -100cm [°C] ff [km/u] ff [kn] fx [km/u] fx [kn] dd ppp [hPa] vv [km] sd [min] rr [mm]
22.10.2017 15:00:00 25,6 1,6 31,4 21,3 20,7 5 3 28 15 O 1010,7 10 60 0,0
22.10.2017 14:00:00 26,5 5,4 30,9 21,4 20,7 9 5 20 11 - 1011,6 10 60 0,0
22.10.2017 13:00:00 22,6 15,7 23,3 21,4 20,8 11 6 18 10 Z 1013,1 10 13 0,0
22.10.2017 12:00:00 20,7 15,3 23,0 21,4 20,7 9 5 16 9 Z 1014,2 10 0 -
22.10.2017 11:00:00 20,3 14,0 19,8 21,4 20,8 8 4 13 7 Z 1015,0 52 0 0,0
22.10.2017 10:00:00 18,2 13,9 17,2 21,4 20,8 5 3 12 7 - 1015,6 10 0 0,0
22.10.2017 09:00:00 17,1 13,2 15,4 21,5 20,8 4 2 12 7 - 1015,7 10 0 0,0
22.10.2017 08:00:00 16,4 12,9 15,2 21,5 20,8 9 5 18 10 ZZO 1015,9 10 0 0,0
22.10.2017 07:00:00 16,3 13,2 14,7 21,6 20,8 9 5 16 9 ZZW 1016,0 10 0 0,0
22.10.2017 06:00:00 15,4 12,9 14,8 21,6 20,8 5 3 9 5 ZZW 1016,3 10 0 0,0
22.10.2017 05:00:00 16,3 13,2 15,2 21,6 20,8 5 3 13 7 ZZW 1016,9 10 0 0,0
22.10.2017 04:00:00 15,6 13,4 14,1 21,7 20,8 5 3 10 6 - 1017,7 10 0 0,0
22.10.2017 03:00:00 14,6 13,0 12,3 21,7 20,8 8 4 10 5 ZZW 1018,1 10 0 0,0
22.10.2017 02:00:00 14,7 12,9 12,3 21,7 20,8 0 0 10 5 N 1018,7 10 0 0,0
22.10.2017 01:00:00 15,3 13,3 13,9 21,7 20,8 5 3 8 4 WZW 1019,2 10 0 0,0
22.10.2017 00:00:00 15,6 14,0 13,4 21,7 20,8 5 3 7 4 ZW 1019,5 9 0 0,0
21.10.2017 23:00:00 16,1 14,5 14,7 21,7 20,8 6 3 9 5 ZW 1019,9 9 0 0,0
21.10.2017 22:00:00 17,4 15,6 14,4 21,6 20,8 4 2 6 4 W 1020,0 9 0 0,0
21.10.2017 21:00:00 18,5 16,7 18,3 21,6 20,8 0 0 6 3 N 1020,1 10 0 0,0
21.10.2017 20:00:00 19,4 17,9 17,4 21,5 20,8 0 0 5 3 N 1019,9 7 0 0,0
21.10.2017 19:00:00 19,6 17,9 15,8 21,4 20,8 4 2 11 6 - 1019,7 8 0 0,0
21.10.2017 18:00:00 21,0 18,4 21,1 21,4 20,8 8 4 16 9 ZO 1019,6 10 49 0,0
21.10.2017 17:00:00 22,3 18,7 25,8 21,3 20,8 9 5 23 12 ZO 1019,8 10 60 0,0
21.10.2017 16:00:00 22,5 18,7 26,7 21,3 20,8 15 8 22 12 ZO 1019,8 10 60 0,0
21.10.2017 15:00:00 23,3 18,2 30,0 21,3 20,8 15 8 25 13 ZO 1020,0 10 60 0,0
21.10.2017 14:00:00 23,4 18,1 30,1 21,3 20,8 18 10 28 15 ZZO 1020,3 10 60 0,0
21.10.2017 13:00:00 23,3 17,7 30,1 21,3 20,8 18 10 27 15 ZO 1020,9 10 60 0,0
21.10.2017 12:00:00 23,5 17,5 28,6 21,3 20,8 13 7 16 9 ZO 1021,2 10 60 0,0
21.10.2017 11:00:00 22,2 12,4 24,6 21,3 20,8 5 3 16 9 Z 1021,3 10 60 0,0
21.10.2017 10:00:00 19,7 11,7 20,0 21,3 20,8 16 9 24 13 ZZW 1021,2 10 60 0,0
21.10.2017 09:00:00 17,2 10,8 15,5 21,4 20,8 13 7 18 10 ZZW 1020,9 10 55 0,0
21.10.2017 08:00:00 16,7 10,8 15,5 21,4 20,8 11 6 32 17 ZW 1020,6 10 0 0,0
21.10.2017 07:00:00 16,4 11,1 14,8 21,5 20,8 13 7 27 15 ZW 1020,3 10 0 0,0
21.10.2017 06:00:00 16,6 11,3 15,5 21,5 20,8 18 10 31 17 ZW 1020,2 10 0 0,0
21.10.2017 05:00:00 17,0 11,9 15,5 21,6 20,8 11 6 19 11 WZW 1020,0 10 0 0,0
21.10.2017 04:00:00 17,4 12,5 15,5 21,6 20,8 11 6 24 13 WZW 1019,8 10 0 0,0
21.10.2017 03:00:00 17,0 12,9 12,2 21,6 20,8 9 5 18 10 WZW 1020,0 10 0 0,0
21.10.2017 02:00:00 16,7 13,4 14,2 21,6 20,8 5 3 18 10 - 1020,3 10 0 0,0
21.10.2017 01:00:00 17,8 14,5 16,5 21,6 20,8 11 6 24 13 ZZW 1020,2 10 0 0,2
21.10.2017 00:00:00 17,8 15,2 15,5 21,6 20,8 11 6 21 11 ZZW 1020,3 10 0 0,0
20.10.2017 23:00:00 17,3 15,8 11,1 21,6 20,9 9 5 18 10 ZZW 1020,2 10 0 0,0
20.10.2017 22:00:00 16,0 14,9 11,9 21,7 20,8 4 2 8 4 - 1019,9 6 0 0,0
20.10.2017 21:00:00 17,3 16,2 14,0 21,6 20,9 5 3 8 4 WZW 1020,0 10 0 -
20.10.2017 20:00:00 17,9 16,8 14,2 21,7 20,9 5 3 9 5 Z 1019,6 5 0 -
20.10.2017 19:00:00 19,4 17,5 15,3 21,5 20,9 0 0 12 6 N 1019,1 10 0 -
20.10.2017 18:00:00 20,8 18,4 20,9 21,6 20,8 8 4 22 12 ZZO 1018,7 10 4 -
20.10.2017 17:00:00 21,0 18,4 21,7 21,5 20,8 15 8 29 15 ZO 1018,6 10 0 -
20.10.2017 16:00:00 21,3 18,3 23,2 21,5 20,9 18 10 29 16 ZO 1018,4 10 13 -
20.10.2017 15:00:00 21,8 18,6 23,6 21,5 20,9 18 10 33 18 ZO 1018,4 10 11 -
20.10.2017 14:00:00 21,7 18,9 25,2 21,4 20,9 24 13 37 20 ZO 1018,6 10 47 -
20.10.2017 13:00:00 21,9 18,9 23,0 21,4 20,9 22 12 35 19 ZO 1019,0 10 32 0,0
20.10.2017 12:00:00 21,1 17,7 18,3 21,6 20,9 21 11 31 17 ZO 1019,2 10 26 0,4
20.10.2017 11:00:00 17,4 15,7 16,0 21,6 20,8 4 2 8 5 - 1019,1 10 0 0,0
20.10.2017 10:00:00 15,9 13,9 15,5 21,8 20,9 5 3 12 6 ZZW 1018,8 10 0 0,2
20.10.2017 09:00:00 15,7 13,9 14,8 21,7 20,9 5 3 18 10 ZW 1018,5 10 0 1,8
20.10.2017 08:00:00 15,9 12,8 15,5 21,6 20,9 11 6 15 8 ZZW 1017,5 10 0 0,0
20.10.2017 07:00:00 15,5 12,6 13,1 21,6 20,9 9 5 14 8 ZW 1017,2 10 0 0,0
20.10.2017 06:00:00 14,1 12,0 10,9 21,6 20,9 2 1 5 3 - 1016,8 10 0 0,0
20.10.2017 05:00:00 13,7 11,6 11,8 21,5 20,9 5 3 11 6 - 1016,5 10 0 0,0
20.10.2017 04:00:00 14,0 11,7 12,1 21,9 20,9 5 3 11 6 - 1016,5 10 0 0,0
20.10.2017 03:00:00 14,6 12,3 12,9 21,8 20,9 8 4 15 8 ZZW 1016,7 10 0 0,0
20.10.2017 02:00:00 15,4 13,2 13,4 21,7 20,9 8 4 18 10 ZZW 1016,8 10 0 0,0
20.10.2017 01:00:00 15,4 13,4 13,6 21,7 20,9 8 4 14 8 Z 1016,5 10 0 0,0
20.10.2017 00:00:00 16,5 14,1 15,5 22,1 20,9 9 5 26 14 ZZW 1016,3 10 0 0,0
19.10.2017 23:00:00 19,3 17,1 18,5 21,9 20,9 16 9 28 15 ZZO 1016,3 10 0 0,0
19.10.2017 22:00:00 19,6 17,0 18,7 21,8 20,9 15 8 30 16 ZZO 1016,4 10 0 0,0
19.10.2017 21:00:00 19,8 17,0 19,0 21,7 20,9 18 10 36 19 ZZO 1016,0 10 0 0,0
19.10.2017 20:00:00 19,8 16,6 19,2 21,8 20,9 22 12 37 20 ZZO 1015,9 10 0 0,0
19.10.2017 19:00:00 19,9 16,7 19,4 21,6 20,9 22 12 37 20 ZZO 1015,7 10 0 0,0
19.10.2017 18:00:00 20,0 16,6 19,8 21,4 20,9 24 13 42 23 ZO 1015,6 10 0 0,0
19.10.2017 17:00:00 20,4 16,8 20,7 21,4 20,9 24 13 46 25 ZO 1015,6 10 12 0,0
19.10.2017 16:00:00 21,3 16,7 23,8 21,3 20,9 31 17 47 26 ZO 1015,5 10 57 0,0
19.10.2017 15:00:00 22,1 16,8 25,3 21,3 20,9 26 14 48 26 ZO 1015,8 10 55 0,0
19.10.2017 14:00:00 21,9 16,8 24,5 21,3 20,9 22 12 42 23 ZO 1016,3 10 44 0,0
19.10.2017 13:00:00 22,2 16,9 28,2 21,4 20,9 26 14 41 22 ZZO 1017,0 10 60 0,0
19.10.2017 12:00:00 21,9 16,6 28,0 21,4 20,9 21 11 34 18 ZO 1017,4 10 60 0,0
19.10.2017 11:00:00 21,7 16,2 25,0 21,4 20,9 16 9 29 16 ZZO 1017,3 10 49 0,0
19.10.2017 10:00:00 18,7 14,6 20,3 21,5 20,9 0 0 9 5 N 1017,4 10 60 -
19.10.2017 09:00:00 15,4 13,6 10,5 21,8 21,0 4 2 13 7 - 1017,3 10 56 -
19.10.2017 08:00:00 12,1 11,0 9,9 21,7 20,9 5 3 18 10 ZW 1017,1 10 0 -
19.10.2017 07:00:00 12,5 11,2 10,0 21,8 21,0 8 4 9 5 WZW 1017,0 10 0 -
19.10.2017 06:00:00 12,9 11,8 10,6 21,8 21,0 4 2 9 5 WZW 1017,3 10 0 -
19.10.2017 05:00:00 13,0 12,1 9,8 21,8 20,9 5 3 9 5 WZW 1017,2 10 0 -
19.10.2017 04:00:00 12,9 12,0 7,1 21,9 21,0 4 2 8 4 - 1017,2 10 0 -
19.10.2017 03:00:00 13,2 12,1 7,2 22,0 21,0 0 0 6 3 N 1017,7 7 0 -
19.10.2017 02:00:00 14,0 12,7 9,2 21,8 21,0 4 2 9 5 - 1018,0 10 0 -
19.10.2017 01:00:00 15,0 13,7 12,8 21,8 21,0 8 4 11 6 ZW 1018,0 10 0 -
19.10.2017 00:00:00 15,1 14,1 12,1 21,8 21,0 5 3 8 4 ZW 1018,4 10 0 -
18.10.2017 23:00:00 16,2 14,7 13,0 21,7 21,0 4 2 9 5 ZW 1018,5 10 0 -
18.10.2017 22:00:00 17,3 15,3 14,8 21,9 21,0 5 3 11 6 - 1018,2 10 0 -
18.10.2017 21:00:00 19,1 16,5 18,7 21,8 21,0 5 3 16 9 - 1018,1 10 0 -
18.10.2017 20:00:00 19,6 16,6 19,1 21,7 21,0 9 5 17 9 ZZO 1018,0 10 0 -
18.10.2017 19:00:00 20,0 16,6 19,9 21,7 21,0 9 5 21 11 ZO 1017,9 10 0 -
18.10.2017 18:00:00 20,2 16,6 20,4 21,6 21,0 13 7 25 14 ZO 1017,8 10 0 -
18.10.2017 17:00:00 20,7 16,5 21,5 21,6 21,0 13 7 29 16 ZO 1018,0 10 13 -
18.10.2017 16:00:00 21,0 16,8 22,3 21,5 21,0 16 9 29 15 ZO 1018,1 10 26 -
18.10.2017 15:00:00 22,2 16,9 27,0 21,5 21,0 18 10 27 15 ZZO 1018,6 10 53 -
18.10.2017 14:00:00 22,4 16,7 30,5 21,5 21,0 15 8 24 13 ZO 1019,2 10 60 -
18.10.2017 13:00:00 22,5 15,8 29,9 21,5 21,0 13 7 21 11 ZO 1019,8 10 60 -
18.10.2017 12:00:00 21,2 15,5 28,7 21,6 21,0 11 6 18 10 OZO 1020,3 10 60 -
18.10.2017 11:00:00 20,4 13,1 24,2 21,6 21,0 5 3 8 5 - 1020,4 10 60 -
18.10.2017 10:00:00 18,1 12,3 18,6 21,6 21,0 2 1 6 4 - 1020,8 10 60 -
18.10.2017 09:00:00 14,3 10,1 11,0 21,5 21,0 5 3 10 5 ZW 1020,8 10 60 -
18.10.2017 08:00:00 12,8 8,9 9,0 21,6 21,0 8 4 20 11 ZW 1020,6 10 2 0,0
18.10.2017 07:00:00 11,1 9,0 8,5 21,7 21,0 8 4 10 5 ZW 1020,7 10 0 0,0
18.10.2017 06:00:00 11,2 9,3 8,7 21,8 21,0 5 3 10 5 ZW 1021,0 10 0 0,0
18.10.2017 05:00:00 12,1 10,2 9,2 21,8 21,0 8 4 12 6 ZW 1021,2 10 0 0,0
18.10.2017 04:00:00 11,7 10,4 7,9 21,9 21,0 5 3 8 5 ZW 1021,4 10 0 0,0
18.10.2017 03:00:00 12,2 10,9 7,7 21,9 21,0 5 3 8 4 WZW 1021,7 10 0 0,0
18.10.2017 02:00:00 12,9 11,8 8,2 21,9 21,0 5 3 9 5 ZW 1022,0 9 0 0,0
18.10.2017 01:00:00 13,6 12,5 6,9 21,9 21,0 4 2 7 4 WZW 1022,2 10 0 0,0
18.10.2017 00:00:00 13,9 12,8 9,7 21,9 21,0 5 3 7 4 WZW 1022,5 10 0 0,0
17.10.2017 23:00:00 14,2 12,9 11,0 21,9 21,0 5 3 9 5 ZW 1022,6 10 0 0,0
17.10.2017 22:00:00 13,6 12,3 9,3 21,9 21,0 4 2 6 3 ZZW 1022,9 10 0 0,0
17.10.2017 21:00:00 15,6 14,1 10,7 21,8 21,0 4 2 6 3 W 1022,9 10 0 0,0
17.10.2017 20:00:00 16,7 14,0 11,1 21,8 21,0 0 0 5 3 N 1023,1 10 0 0,0
17.10.2017 19:00:00 18,3 15,4 15,0 21,7 21,0 4 2 11 6 - 1022,8 10 10 0,0
17.10.2017 18:00:00 20,0 15,6 21,4 21,8 21,0 8 4 18 10 ZZO 1022,9 10 60 0,0
17.10.2017 17:00:00 21,2 15,1 25,7 21,7 21,0 9 5 17 9 ZZO 1023,1 10 60 0,0
17.10.2017 16:00:00 21,7 14,8 27,4 21,6 21,0 11 6 20 11 OZO 1023,3 10 60 0,0
17.10.2017 15:00:00 22,1 15,2 30,5 21,6 21,0 9 5 16 9 OZO 1023,7 10 60 0,0
17.10.2017 14:00:00 21,9 15,3 29,3 21,6 21,0 11 6 21 12 OZO 1024,5 10 60 0,0
17.10.2017 13:00:00 21,9 14,5 29,3 21,7 21,0 9 5 16 9 OZO 1025,4 10 60 0,0
17.10.2017 12:00:00 22,6 14,4 27,6 21,7 21,1 5 3 13 7 - 1025,6 10 60 0,0
17.10.2017 11:00:00 21,3 14,9 19,1 21,9 21,0 0 0 8 4 N 1025,9 10 60 0,0
17.10.2017 10:00:00 15,7 11,1 15,6 21,7 21,0 5 3 9 5 ZW 1026,3 10 19 0,0
17.10.2017 09:00:00 13,9 10,3 10,6 21,8 21,0 5 3 9 5 ZW 1026,1 10 17 0,0
17.10.2017 08:00:00 11,5 9,1 9,8 21,9 21,1 5 3 9 5 ZW 1025,7 10 0 0,0
17.10.2017 07:00:00 11,6 9,2 9,4 21,9 21,0 8 4 12 6 WZW 1025,7 10 0 0,0
17.10.2017 06:00:00 11,4 9,5 9,1 22,0 21,0 5 3 10 6 ZW 1025,6 10 0 0,0
17.10.2017 05:00:00 11,8 9,9 10,4 22,1 21,1 8 4 9 5 ZW 1025,7 10 0 0,0
17.10.2017 04:00:00 12,2 10,4 10,5 22,1 21,1 8 4 9 5 ZW 1026,0 10 0 0,0
17.10.2017 03:00:00 12,6 10,7 11,0 22,2 21,1 8 4 10 6 ZW 1026,4 10 0 0,0
17.10.2017 02:00:00 13,2 11,3 11,8 22,2 21,1 8 4 11 6 WZW 1026,8 10 0 0,0
17.10.2017 01:00:00 14,4 12,6 13,0 22,3 21,1 5 3 9 5 ZW 1027,2 10 0 0,2
17.10.2017 00:00:00 14,2 12,6 11,7 22,2 21,1 5 3 9 5 WZW 1027,4 10 0 0,0
16.10.2017 23:00:00 14,7 12,9 11,7 22,2 21,1 4 2 9 5 WZW 1027,5 10 0 0,4
16.10.2017 22:00:00 14,5 12,7 9,0 22,2 21,0 5 3 7 4 W 1027,2 9 0 0,0
16.10.2017 21:00:00 15,3 13,8 9,9 22,1 21,1 5 3 8 5 WZW 1027,1 6 0 0,0
16.10.2017 20:00:00 16,6 14,6 10,3 22,1 21,1 0 0 4 2 N 1027,1 10 0 0,0
16.10.2017 19:00:00 18,1 15,5 13,0 21,9 21,1 0 0 14 8 N 1027,0 10 13 0,0
16.10.2017 18:00:00 20,2 15,8 22,9 22,1 21,1 4 2 9 5 - 1027,1 10 60 0,0
16.10.2017 17:00:00 21,1 16,1 26,8 22,0 21,1 8 4 14 8 NO 1027,2 10 60 0,0
16.10.2017 16:00:00 21,9 16,2 29,5 22,0 21,1 9 5 29 15 NO 1027,4 10 60 0,0
16.10.2017 15:00:00 21,9 16,0 30,7 21,9 21,1 9 5 18 10 NO 1027,7 10 60 0,0

tt = temperatuur
td = dauwpunt
tt 5cm = temperatuur 5cm
tt -20cm = temperatuur -20cm
tt -100cm = temperatuur -100cm
ff = windsnelheid
fx = windstoten
dd = windrichting
ppp = luchtdruk
vv = zicht
sd = Zonneschijnduur
rr = neerslag

Weerstations in de omgeving